Wind_Speed
12 13 13 14 14 15 15 14 14 14 15 14 14 13 13 13 13 12 11 10 9 9 8 8 7 6 6 7 8 8 8 8 7 6 6 6 5 5 4 5 5 5 5 5 5 5 5 5 5 5 5 5 6 5 4 3 2 1 1 1 1 0 0 1 2 4 5 6 7 8 8 8 9 9 10 9 8 7 8 9 9 8 8 8 8
13 13 12 13 14 14 14 14 14 14 14 14 13 13 13 13 12 11 10 9 9 8 8 7 6 6 6 6 7 7 8 7 6 6 6 5 5 4 4 4 5 4 5 5 5 6 6 7 7 7 7 7 7 6 5 4 2 1 0 2 2 0 0 0 2 4 6 6 7 9 9 9 9 9 9 8 7 7 8 8 8 8 7 8 9
14 13 12 13 14 14 14 14 14 14 14 13 13 13 13 12 11 11 10 9 9 8 8 7 6 5 6 7 7 7 7 6 5 6 5 5 5 5 5 5 6 6 6 6 5 6 7 7 8 9 8 8 7 6 6 4 2 1 1 1 2 1 1 1 2 4 6 7 8 9 10 9 9 9 8 8 8 8 8 7 7 7 8 9 10
14 14 13 13 14 15 14 14 14 14 13 13 13 13 13 12 11 10 10 9 9 8 7 6 5 5 6 6 7 7 5 6 6 6 6 5 6 6 6 6 7 7 7 6 6 6 7 8 8 8 8 7 6 5 5 4 2 3 1 1 2 1 2 2 2 4 7 7 8 9 10 10 10 9 8 8 9 8 7 7 7 8 9 10 10
14 14 14 14 14 15 15 14 13 13 13 13 13 13 12 11 10 10 10 9 9 8 7 6 5 4 5 7 8 6 5 4 4 6 5 5 6 6 6 6 7 7 7 6 7 7 8 8 8 7 7 6 6 5 4 4 4 4 2 2 2 2 3 3 3 5 8 8 8 9 10 11 10 9 8 9 8 8 7 7 8 9 10 11 11
14 14 14 14 14 14 14 13 13 13 13 13 13 12 11 10 10 10 9 9 8 7 7 6 4 3 5 8 8 5 2 1 3 5 5 4 4 5 5 6 6 7 7 6 7 7 8 8 8 7 6 6 6 5 5 5 5 4 3 3 3 3 3 4 5 7 8 9 9 9 11 11 10 9 9 9 8 7 7 8 9 10 10 11 12
14 14 14 13 13 13 13 13 13 13 13 13 12 11 10 10 9 9 9 8 7 7 6 5 3 3 7 9 7 4 2 3 4 4 3 3 3 3 5 6 7 7 7 6 7 8 9 10 9 8 7 6 5 6 6 6 5 4 5 4 3 4 4 6 8 8 9 10 10 11 11 11 10 10 10 9 7 7 8 9 9 10 11 13 14
14 14 14 13 13 12 12 12 12 12 12 12 11 10 10 9 8 9 8 8 7 6 6 5 4 4 9 11 7 4 4 5 6 6 4 3 2 3 5 6 6 7 7 6 7 9 10 11 11 10 9 7 6 5 6 6 5 5 6 5 4 6 8 8 9 10 11 12 12 12 12 11 12 11 9 8 8 8 9 10 10 11 13 15 16
14 13 13 13 13 12 12 12 12 12 12 11 11 10 9 8 8 8 8 7 6 6 6 5 6 7 12 13 8 5 6 8 7 7 7 6 4 5 6 6 6 7 7 7 7 8 8 9 9 9 8 7 5 6 7 7 5 5 5 6 4 7 10 10 10 12 13 14 13 12 12 12 12 10 9 8 9 9 9 10 11 12 15 16 16
14 13 13 12 13 12 12 12 12 11 11 11 10 10 9 7 7 7 7 6 6 6 6 6 8 10 14 14 9 7 9 10 10 9 9 9 8 9 10 9 9 10 10 8 7 6 6 6 6 6 5 4 5 6 8 8 6 5 5 7 7 8 9 11 13 13 14 14 13 12 12 12 11 9 9 9 10 9 10 11 12 14 16 16 15
14 13 12 12 13 12 12 12 12 11 11 10 10 9 8 7 7 7 6 6 6 7 6 7 9 11 15 16 12 11 12 14 13 12 12 12 12 13 15 13 11 12 12 11 9 8 7 7 6 6 5 4 6 8 9 9 7 6 6 9 10 9 10 13 14 13 13 14 13 13 12 11 10 9 9 10 10 10 10 12 14 15 15 15 14
13 13 12 12 12 12 12 13 12 10 10 10 9 8 8 7 7 7 7 7 7 7 7 8 9 11 14 17 15 13 14 15 15 14 15 15 15 15 16 14 13 13 13 12 11 10 9 9 8 8 7 7 8 9 11 10 8 8 9 11 13 13 13 15 16 13 13 13 13 14 13 11 10 10 10 10 10 10 11 13 15 15 14 13 12
13 12 12 12 12 12 12 12 11 10 10 9 9 9 8 7 7 7 8 8 7 7 8 9 10 11 14 17 16 14 14 15 16 16 16 16 16 15 14 14 13 14 14 14 12 12 12 12 11 11 11 11 12 11 12 12 12 12 13 13 15 16 17 17 17 14 13 14 14 14 12 11 10 10 11 10 10 10 12 15 15 14 13 12 12
13 13 12 12 12 12 12 11 10 10 10 10 10 10 9 8 7 7 8 9 8 8 9 10 11 11 14 16 16 16 14 15 17 17 17 16 15 14 13 14 15 16 17 17 16 16 16 16 16 15 14 14 15 14 15 16 16 16 15 15 16 17 16 16 16 14 13 14 14 13 12 11 10 11 11 10 10 11 14 15 14 13 11 11 11
12 12 12 12 12 11 11 11 10 10 10 10 11 10 9 9 8 7 8 9 8 9 10 11 11 12 14 16 17 16 15 15 16 17 17 16 15 14 14 15 16 16 17 18 18 18 19 19 19 18 17 17 18 18 18 18 17 17 16 16 16 16 15 14 15 14 13 14 14 13 12 11 10 10 10 10 11 13 15 14 12 11 11 11 12
13 12 12 12 12 11 10 10 10 10 10 11 11 11 10 9 8 8 8 9 9 9 11 12 12 12 14 15 16 15 15 15 16 17 16 16 16 17 17 17 17 17 18 19 19 19 20 20 20 20 19 20 20 20 19 18 18 17 17 16 16 15 14 14 14 13 13 13 13 12 11 10 10 10 10 10 12 14 14 12 11 10 11 11 11
13 12 12 12 11 11 9 9 10 10 10 11 12 11 10 9 8 8 8 8 9 10 11 13 12 12 13 14 15 15 15 15 16 17 17 17 17 18 19 19 18 18 19 19 20 20 21 21 21 20 20 20 20 19 18 18 17 17 16 16 15 15 14 13 13 12 12 12 12 12 11 10 9 9 10 12 13 13 12 11 11 10 10 11 10
13 12 12 12 11 10 9 9 10 10 10 11 12 11 10 9 9 8 8 9 9 10 11 12 13 13 13 13 14 14 14 14 15 16 17 17 18 18 19 19 20 19 19 19 20 20 21 21 21 21 20 19 18 18 17 16 16 15 15 15 14 14 13 13 12 11 11 12 12 11 10 9 9 10 11 13 13 12 11 11 10 10 10 10 9
13 12 12 11 10 10 9 8 9 10 11 11 11 11 10 10 9 8 8 9 9 10 12 13 13 14 13 12 13 14 13 14 15 16 16 17 18 18 18 18 19 19 19 19 19 20 21 21 20 20 19 18 18 17 16 15 15 14 14 13 13 12 12 12 11 11 11 11 11 10 10 9 9 11 13 14 13 12 11 10 9 9 9 8 8
13 12 12 11 10 10 10 9 9 10 11 11 11 11 11 11 9 8 8 9 9 10 12 14 14 14 13 12 13 14 13 14 14 15 16 16 17 17 17 17 18 19 19 19 19 19 19 19 18 18 17 16 16 15 14 14 13 12 12 12 11 11 11 11 11 11 11 10 10 10 10 9 10 12 13 13 12 11 10 9 9 8 8 8 7
13 12 12 11 10 10 10 10 10 10 11 10 11 11 11 11 10 9 9 9 10 11 13 14 16 14 12 12 13 14 14 14 14 15 16 15 15 16 17 17 17 17 18 18 18 18 18 17 16 15 15 14 13 13 12 12 11 11 11 11 11 11 11 10 10 10 10 10 10 10 10 10 12 13 13 12 11 10 9 9 8 7 7 7 7
13 12 12 11 11 10 10 10 10 10 11 10 10 11 11 12 11 9 9 10 10 12 13 13 16 16 13 13 13 13 13 14 14 15 16 15 14 15 16 16 16 16 16 17 17 17 16 15 14 13 12 12 11 11 10 10 10 10 10 10 11 11 10 10 10 10 10 10 10 11 11 12 13 13 12 11 11 10 9 8 7 7 7 7 7
12 12 12 12 11 11 10 10 10 10 11 11 10 11 11 12 10 10 10 10 10 11 12 12 15 17 17 14 13 13 13 14 15 16 17 15 14 15 15 15 15 15 16 16 16 15 14 13 12 11 11 11 11 10 10 10 10 10 11 11 11 10 10 10 10 10 11 11 12 13 13 13 13 12 11 10 10 9 8 7 7 7 7 7 8
12 11 11 11 11 11 10 10 9 9 10 10 10 11 11 11 11 10 10 10 10 10 12 13 14 16 18 16 13 13 12 13 13 16 17 15 15 15 15 14 14 15 15 15 14 14 13 12 11 11 11 11 11 10 10 10 10 11 11 11 11 10 10 11 12 11 12 13 14 14 14 13 13 12 11 10 9 8 8 7 7 7 7 8 10
11 11 10 10 10 11 11 10 9 9 10 10 10 10 11 11 11 10 10 10 10 9 10 12 14 15 18 18 15 14 12 12 12 14 16 15 15 15 14 13 13 14 14 14 13 13 12 11 12 12 11 11 11 11 11 11 11 11 12 12 12 12 12 13 14 14 14 15 15 14 14 13 12 11 10 9 8 8 7 7 7 8 8 10 12
11 11 10 10 10 11 12 12 10 9 9 10 10 9 10 11 11 10 10 10 9 9 9 11 14 15 17 18 17 15 12 12 11 12 14 14 14 14 14 14 13 14 14 13 13 13 13 13 13 13 13 13 13 13 13 13 13 13 13 13 13 14 15 15 16 16 16 15 15 14 13 12 11 10 9 8 8 8 8 8 8 8 10 12 13
11 11 10 9 9 9 11 12 11 9 9 9 10 9 9 9 10 10 10 10 9 9 9 10 13 14 16 17 17 16 13 12 12 11 12 12 13 14 14 15 14 14 14 13 13 14 14 14 14 14 14 14 15 16 16 15 15 15 15 15 16 16 16 17 17 17 16 15 14 13 12 11 10 9 9 9 8 8 8 8 9 10 12 13 13
11 11 10 9 8 8 10 11 11 10 9 9 9 9 9 9 9 9 9 10 10 10 10 10 11 13 14 16 17 17 15 14 13 12 11 11 12 13 14 15 15 15 14 13 13 14 14 14 15 15 15 16 17 17 18 18 18 17 17 17 18 18 17 17 17 16 16 15 13 12 11 10 10 10 10 9 9 8 8 9 10 12 13 14 14
10 10 9 9 8 7 8 10 11 10 9 8 8 8 9 9 8 8 9 9 9 10 11 10 11 12 13 14 16 17 17 16 15 14 12 11 11 12 13 15 15 15 15 15 14 15 15 15 15 15 16 17 18 19 19 19 19 19 19 18 18 18 17 17 16 15 15 13 12 11 11 11 11 10 10 9 9 9 9 10 11 13 13 14 14
10 10 9 8 8 7 7 9 10 10 9 8 8 7 8 9 9 8 8 8 8 9 10 10 10 11 12 13 15 16 17 17 16 16 15 14 13 13 12 13 15 15 15 16 15 16 16 15 15 15 16 16 17 19 19 19 19 19 19 18 18 18 17 16 15 14 13 13 12 12 11 11 11 10 10 10 10 10 11 11 12 13 14 14 14
11 10 9 8 7 7 6 7 9 9 8 8 7 7 7 8 9 8 8 8 8 9 10 10 10 10 10 11 13 15 16 16 16 16 17 17 16 15 14 13 14 14 15 16 15 15 15 15 15 15 15 16 17 18 18 18 18 18 18 17 16 16 15 15 13 12 13 13 13 12 11 11 11 11 11 11 11 11 12 12 13 14 14 14 13
12 11 10 9 8 7 6 7 8 8 7 7 7 7 6 7 8 9 8 8 9 9 10 10 10 10 9 10 11 12 14 14 14 15 16 18 18 17 16 15 15 14 14 15 15 14 14 14 14 14 14 15 15 16 17 17 16 16 16 15 14 14 13 13 12 13 13 13 12 11 11 11 12 12 12 12 12 12 12 13 14 14 14 13 13
12 11 10 9 8 7 7 6 8 8 7 6 7 7 6 6 7 9 9 9 9 9 10 10 10 9 9 9 9 11 12 13 13 14 14 16 17 17 15 16 16 15 15 14 13 13 13 13 13 13 13 13 13 14 14 14 14 14 13 13 13 12 12 12 12 13 13 12 12 11 12 12 12 13 13 12 12 12 12 13 14 14 13 13 12
13 12 11 10 9 8 7 7 8 8 7 5 6 6 6 6 6 8 9 9 9 9 10 10 10 10 9 9 9 10 12 12 12 13 13 14 16 16 15 15 16 15 15 14 13 12 12 12 12 12 12 12 12 12 12 12 13 12 11 11 11 12 12 12 12 12 12 11 12 12 12 13 13 13 12 12 12 12 13 14 14 13 13 12 12
13 13 11 10 9 8 8 8 8 8 7 6 5 5 6 6 6 8 9 10 8 8 10 10 10 10 10 9 10 11 12 11 11 12 12 13 15 16 15 15 15 15 15 14 13 12 12 11 11 11 11 12 11 11 11 11 11 11 10 10 10 11 11 11 11 11 10 11 11 12 12 13 13 12 12 11 12 13 13 14 13 13 12 12 11
13 13 12 11 10 9 8 8 8 9 8 6 5 5 5 6 7 8 10 10 9 7 9 10 9 9 10 9 9 11 12 12 13 13 12 12 14 16 16 15 15 15 15 14 13 12 12 12 11 9 10 11 11 11 11 10 10 10 10 10 10 11 11 11 11 10 10 10 11 11 12 12 12 12 12 12 13 13 14 13 13 12 12 11 11
13 13 13 12 10 10 9 8 9 9 9 7 6 5 5 6 7 8 9 10 10 7 7 9 8 8 9 9 9 10 12 13 15 14 13 13 14 15 16 15 14 14 14 14 14 13 12 12 11 9 8 9 10 10 10 10 9 9 9 10 10 10 10 10 10 9 9 9 10 10 11 12 11 11 12 13 13 13 13 13 12 12 11 10 10
12 13 13 12 11 10 9 9 10 10 10 8 7 6 6 6 7 8 8 10 11 8 7 9 8 7 8 9 8 8 10 11 13 14 14 14 14 14 15 15 14 14 13 12 12 12 11 10 10 10 7 7 9 10 9 9 9 9 9 10 10 10 10 10 9 9 9 8 8 9 11 11 11 12 13 13 14 13 13 13 12 11 11 10 10
12 13 13 13 12 12 10 10 10 11 11 10 8 7 6 6 7 8 8 9 10 9 8 8 7 7 7 9 9 8 9 10 11 12 12 13 13 13 13 13 13 13 12 11 11 10 9 9 9 9 7 6 8 9 9 8 8 9 9 10 10 9 9 9 9 8 7 7 8 9 11 11 12 12 13 13 13 13 13 12 12 11 10 10 11
12 13 14 15 14 13 12 11 11 11 12 11 9 8 7 7 7 8 9 9 10 11 10 9 8 7 7 8 9 7 7 9 9 10 11 11 12 11 11 10 10 11 10 9 9 9 8 8 8 7 7 7 7 7 8 8 8 9 9 10 9 9 8 8 8 7 6 7 8 9 10 11 12 13 13 13 13 13 12 12 11 10 10 11 13
14 14 15 16 16 15 14 13 13 13 13 12 9 8 7 7 8 8 9 10 10 11 11 10 10 9 7 6 7 6 6 7 8 9 10 10 10 10 10 9 9 9 9 8 7 7 7 7 7 7 6 6 6 6 7 8 9 9 9 9 9 8 8 8 8 7 5 7 8 9 10 11 12 12 13 13 12 12 12 11 10 10 11 12 13
15 15 15 16 16 16 15 14 14 13 13 12 10 8 8 8 9 9 10 11 11 11 11 10 10 9 8 8 7 7 8 8 8 8 9 10 10 10 9 8 8 8 7 7 6 6 5 5 6 6 6 6 6 6 7 8 8 9 9 9 8 8 8 7 7 6 6 6 7 9 10 10 11 12 12 12 12 11 11 10 10 10 11 12 13
16 15 14 15 16 16 16 16 15 14 13 13 11 9 9 10 10 10 11 12 12 11 11 10 10 9 9 9 9 9 9 9 9 9 9 10 10 10 9 8 7 7 7 6 5 4 4 5 5 6 6 5 6 6 7 8 8 8 8 8 7 7 7 6 6 6 6 6 7 9 10 10 11 12 12 12 11 10 10 10 10 10 11 11 12
16 15 14 14 16 17 17 17 16 15 14 13 12 10 10 11 12 12 13 13 12 11 11 10 10 9 8 9 9 9 10 10 9 9 9 10 10 10 10 8 7 7 6 6 5 4 4 4 4 5 6 5 5 6 7 8 8 8 7 7 7 6 6 6 6 6 6 7 8 9 10 10 11 11 11 11 10 10 9 9 10 11 11 11 11
16 17 16 16 16 17 18 17 17 16 15 14 13 12 12 13 13 14 13 13 13 12 11 10 10 9 9 9 9 9 9 9 10 10 10 10 10 10 10 9 8 7 6 6 6 5 4 4 4 5 5 5 5 6 7 7 8 7 7 6 6 6 5 6 7 6 6 8 9 10 10 10 11 11 11 10 10 10 9 9 10 10 10 11 12
17 18 17 16 16 16 17 17 17 16 16 15 14 14 14 14 14 14 13 13 12 12 11 10 10 9 8 8 9 9 9 9 10 10 10 10 10 11 10 10 9 8 7 6 6 5 5 5 5 5 5 5 6 6 6 7 7 7 7 6 6 6 5 6 7 7 7 8 9 10 11 11 10 10 10 9 9 9 9 9 9 10 10 11 12
17 17 16 16 15 16 17 17 17 17 17 16 16 15 15 15 15 14 13 13 13 13 12 11 10 10 9 9 9 9 9 9 9 10 10 11 11 11 11 10 9 8 7 7 7 6 5 5 4 5 5 5 6 6 6 6 7 7 6 6 7 7 6 5 6 7 7 8 8 9 10 11 10 10 9 8 8 9 9 9 9 9 10 11 11
17 17 16 16 16 17 17 18 18 18 18 17 17 16 16 16 15 14 14 14 15 14 14 13 11 11 10 10 10 9 9 9 9 10 11 11 11 11 11 11 10 9 8 8 8 7 6 5 4 4 4 5 5 5 6 6 6 7 6 6 7 7 7 6 6 7 7 9 8 8 9 10 10 9 9 8 8 8 8 8 9 10 10 10 11
16 17 17 17 17 17 18 18 19 19 19 18 18 17 16 16 15 14 14 15 16 16 15 14 12 11 10 10 9 9 9 9 9 10 11 11 11 11 12 11 10 10 9 8 8 8 7 5 4 3 3 4 5 5 6 6 6 6 7 7 7 7 7 7 7 7 7 8 9 8 9 9 9 9 9 8 8 8 8 9 10 10 9 10 11
15 17 17 17 16 17 18 19 20 20 20 20 19 18 17 16 15 14 15 16 17 16 15 14 13 12 10 9 9 9 9 9 9 9 10 11 11 12 12 12 11 10 9 9 8 8 8 7 5 4 3 4 5 6 6 6 6 6 6 7 7 7 7 7 7 8 8 8 8 8 8 9 9 9 9 8 8 8 8 9 10 9 9 10 10
14 15 16 17 17 17 19 20 21 21 21 21 20 19 17 16 15 15 16 17 17 17 16 14 13 12 11 10 10 10 10 9 8 9 10 11 11 12 12 12 11 11 10 9 9 9 8 7 6 5 4 5 6 7 7 7 7 6 6 6 7 7 7 7 7 7 8 8 7 7 7 8 8 8 9 9 8 8 9 9 10 9 9 9 10
Wind_Direction
96 100 102 98 97 95 96 95 90 85 83 85 86 88 88 89 90 92 95 98 103 105 107 110 114 120 126 132 136 136 131 128 136 148 156 159 153 146 136 134 139 145 158 168 167 173 183 153 133 146 153 146 137 147 149 155 160 85 8 323 312 268 212 161 124 120 115 114 114 110 107 104 99 97 97 94 88 83 84 88 88 84 76 67 59
103 104 105 99 96 95 96 94 89 87 88 89 91 91 90 89 91 95 99 102 103 104 107 110 117 127 139 147 143 125 111 114 131 147 154 151 137 133 138 140 147 158 172 174 167 169 172 161 156 157 158 155 152 159 156 156 158 100 318 286 272 267 51 243 132 141 136 129 124 116 112 107 103 101 98 94 89 88 91 93 89 82 71 62 56
106 104 105 103 99 97 94 93 92 91 92 92 92 91 91 93 98 102 104 104 103 104 105 110 122 140 158 155 129 107 109 129 146 147 138 129 131 141 151 157 164 176 182 176 172 171 164 163 161 158 163 159 157 164 156 155 163 216 218 254 261 42 62 239 175 156 141 135 130 120 117 114 109 104 99 94 92 95 97 94 86 76 66 59 53
110 108 106 104 101 99 96 96 96 94 95 94 92 92 94 98 101 102 100 99 98 99 103 111 127 152 162 137 110 110 141 166 156 138 125 127 145 156 162 173 179 184 188 177 173 171 163 162 160 161 167 159 159 167 161 154 187 231 196 193 234 114 153 215 190 154 138 133 125 122 125 120 112 106 100 97 101 103 103 94 80 70 64 59 53
111 111 109 105 102 101 100 98 97 96 95 93 92 92 95 97 97 94 92 91 92 96 103 114 133 154 142 113 103 119 161 182 150 120 120 145 161 164 168 181 187 192 193 180 172 172 169 166 163 167 171 166 163 167 165 162 202 228 170 182 213 152 179 188 169 147 133 127 122 125 126 120 115 111 106 106 109 109 102 87 73 67 62 59 59
111 112 111 108 105 103 102 100 98 96 94 92 91 92 93 93 91 88 87 86 88 93 98 106 122 134 103 91 89 102 140 153 124 112 121 148 154 163 174 187 197 197 195 185 176 174 177 172 171 176 178 178 172 169 172 174 199 206 165 192 209 187 186 165 148 136 125 119 120 121 117 117 116 112 112 112 111 104 89 75 71 67 62 66 74
117 116 115 112 108 105 104 102 99 97 94 93 92 91 91 88 86 84 82 83 85 86 88 91 90 89 78 73 67 60 63 74 87 91 99 124 131 157 178 192 199 196 194 193 182 175 180 182 180 182 185 189 186 178 178 178 188 183 164 184 189 163 156 146 134 128 121 113 113 115 116 119 117 114 114 114 108 94 80 74 70 68 72 80 87
121 119 116 113 109 106 105 103 100 97 96 93 91 88 86 85 83 81 80 79 80 80 76 64 46 46 64 68 61 45 46 58 68 69 69 80 105 160 177 187 191 186 185 192 187 181 187 189 185 185 187 192 198 187 175 175 188 183 159 166 163 127 130 134 127 129 125 116 115 120 123 122 118 115 116 113 101 86 79 74 67 72 84 91 92
119 118 116 114 109 108 106 104 101 98 96 92 88 86 84 84 84 81 80 80 78 75 66 50 38 42 60 65 58 44 45 49 55 62 73 83 101 133 142 150 156 158 161 172 182 183 189 191 186 184 186 186 195 182 163 169 190 187 150 145 138 121 128 127 126 133 128 119 119 123 124 118 115 117 115 105 90 82 79 75 75 86 94 95 94
120 120 118 115 111 109 106 102 99 95 92 88 86 85 85 85 85 83 82 82 77 71 59 47 38 45 61 64 52 43 45 49 53 60 76 90 102 107 105 115 129 130 130 137 147 153 163 170 166 166 171 176 187 173 156 162 174 172 145 126 125 130 130 124 125 126 120 118 118 119 117 112 114 116 109 95 85 81 77 79 90 98 98 97 95
121 119 117 115 111 108 104 99 95 92 90 87 86 86 86 84 82 86 87 82 74 68 57 45 38 45 62 66 55 46 49 56 63 71 82 92 95 95 96 104 111 110 111 116 121 125 131 134 136 134 140 158 167 159 148 150 157 153 129 115 120 124 119 114 112 110 114 121 120 117 114 114 116 111 99 90 85 80 79 89 99 99 98 99 98
121 118 116 114 110 106 101 97 95 93 90 87 86 85 83 82 82 86 88 82 75 68 58 49 41 44 59 67 63 53 55 65 74 81 87 90 89 88 92 97 100 101 105 112 118 122 123 124 124 120 122 129 131 135 135 135 137 127 114 112 116 115 114 112 112 116 123 122 118 116 115 113 109 101 93 88 85 82 89 100 102 101 102 102 99
123 119 116 112 108 104 100 97 97 94 92 90 87 84 83 82 81 82 82 82 80 72 62 56 49 46 57 67 68 63 61 70 79 86 87 86 83 81 84 91 97 102 104 107 112 116 116 118 119 115 115 115 114 118 120 119 115 110 109 110 109 110 114 116 120 128 124 115 112 111 109 104 99 95 90 87 86 89 100 106 106 106 107 105 98
123 120 117 112 108 103 98 96 95 96 96 93 88 87 86 84 83 82 84 85 85 78 68 61 54 52 61 68 73 73 72 75 80 85 86 84 81 79 81 87 95 101 102 101 104 108 110 111 112 111 111 110 110 111 111 108 106 106 107 105 103 104 108 111 117 120 113 109 107 103 99 95 94 92 90 88 88 97 107 110 111 112 110 101 91
122 119 118 113 107 99 96 96 96 98 99 95 91 89 89 88 86 83 86 87 83 77 71 66 61 58 64 71 77 81 83 83 84 86 86 84 81 81 84 90 94 98 99 99 101 104 105 107 108 108 108 107 107 108 107 106 106 106 106 104 103 103 104 105 108 109 105 102 100 97 94 93 93 93 93 90 94 106 112 115 116 113 104 94 86
124 121 119 112 104 98 94 95 99 103 100 96 93 89 88 87 85 82 83 85 80 76 74 71 66 62 64 72 80 85 87 87 88 89 88 85 85 89 93 94 97 99 100 101 102 103 104 105 105 105 104 104 104 106 107 108 109 108 107 106 105 106 105 105 104 104 101 97 96 94 94 95 96 96 94 93 103 114 119 120 116 107 97 90 83
126 124 118 112 104 98 94 96 101 102 98 93 89 86 86 87 85 82 81 82 81 78 75 73 71 66 67 73 81 87 89 90 92 92 90 90 91 96 98 97 98 100 100 101 102 104 105 105 103 103 102 103 104 106 109 110 110 110 109 108 108 108 106 103 101 100 98 96 95 96 97 98 100 97 95 102 115 121 122 118 110 101 93 86 80
128 126 120 113 105 101 99 101 102 99 96 91 89 88 88 91 88 86 84 82 80 78 78 78 76 72 72 75 81 86 90 94 96 95 95 96 96 97 98 99 100 101 101 101 103 106 107 106 106 105 105 106 106 107 107 108 108 108 108 108 108 107 105 102 101 100 99 97 97 99 99 99 98 97 103 115 123 124 121 113 105 97 89 82 77
131 128 123 115 109 108 107 107 106 101 98 93 91 92 92 92 90 88 86 84 82 82 82 80 76 75 77 79 82 85 88 91 94 95 96 98 97 97 98 100 102 104 106 106 106 106 106 106 107 107 109 110 109 108 108 108 108 107 107 106 105 103 102 101 102 102 100 100 100 101 100 98 97 104 116 124 125 122 115 108 100 92 84 77 69
136 132 126 119 116 113 114 117 111 105 100 96 95 93 91 88 86 85 82 84 84 83 81 79 79 80 83 84 84 84 85 87 91 93 93 95 96 98 101 103 106 110 112 112 109 106 105 105 105 107 107 107 107 108 109 109 109 108 107 105 103 102 102 103 104 102 101 102 102 100 98 98 106 116 123 123 121 116 109 101 93 85 77 68 60
141 138 132 125 122 118 122 125 115 108 103 97 96 93 91 88 85 83 81 82 81 78 77 81 86 86 86 85 83 82 82 85 89 92 92 93 96 100 105 107 110 114 117 115 112 107 105 105 105 106 106 107 108 110 111 111 111 109 107 107 107 107 108 109 107 105 106 105 102 100 99 106 117 121 121 119 115 108 101 93 85 77 69 61 55
147 143 139 132 128 123 126 125 116 114 108 99 96 94 93 91 86 85 85 83 82 82 80 83 88 89 87 82 81 84 85 86 89 93 94 94 96 100 104 106 110 115 116 114 111 108 107 108 108 108 109 110 111 112 113 113 114 114 114 114 113 114 116 115 111 110 110 107 104 104 108 114 117 116 115 113 107 100 93 86 79 71 63 60 59
152 150 145 139 135 130 128 126 121 120 115 103 98 97 93 92 89 86 86 85 87 91 90 87 85 89 91 83 80 86 88 88 91 96 99 98 97 99 102 105 109 111 112 110 108 108 109 109 110 111 111 112 113 113 113 114 117 118 119 117 116 118 119 116 113 111 111 108 107 109 113 114 114 112 110 105 99 94 87 81 74 67 64 64 65
158 156 151 145 141 133 128 126 123 120 114 102 100 103 98 96 93 88 87 86 85 89 96 95 88 89 94 92 87 85 84 85 90 95 99 101 102 102 104 108 111 109 107 106 106 107 108 109 109 107 107 109 109 109 111 112 114 114 113 112 112 113 112 111 112 111 109 108 109 111 112 113 111 108 103 99 93 87 82 76 71 68 70 71 70
162 160 156 151 146 138 133 131 126 119 115 107 104 106 104 102 100 96 91 88 86 87 94 97 96 95 96 99 95 87 80 81 86 91 98 104 107 107 108 110 112 109 107 106 107 108 108 108 106 105 105 105 104 104 106 106 106 105 105 106 107 109 108 108 109 109 107 107 109 110 110 110 108 103 99 93 87 83 79 76 73 74 76 74 72
166 164 159 157 152 146 141 137 131 124 119 113 105 102 101 104 106 106 100 96 95 94 91 92 95 95 95 100 99 93 89 87 85 84 92 103 109 111 111 111 110 108 106 106 107 107 106 104 101 100 102 101 101 101 101 101 101 101 102 104 106 108 109 109 109 108 108 109 110 108 108 107 104 100 93 86 82 81 80 79 79 79 77 75 73
170 168 162 160 158 153 148 141 135 129 123 115 108 106 105 108 112 116 114 110 106 100 96 93 95 94 95 101 101 102 105 101 95 86 88 103 111 111 110 109 108 106 104 103 102 101 100 99 97 96 97 98 99 100 101 101 102 103 104 106 107 108 109 109 109 110 110 110 111 109 108 105 99 92 85 81 81 81 81 81 81 80 78 76 73
174 171 165 162 161 160 155 147 140 133 128 120 115 116 115 115 118 121 120 118 114 108 105 99 98 97 97 102 105 108 110 108 104 95 91 101 110 111 111 110 108 106 106 105 104 102 100 98 97 96 97 98 99 100 102 103 104 105 106 107 108 109 110 111 111 112 112 111 110 107 103 97 90 85 82 82 81 81 82 83 81 81 78 76 73
178 175 168 166 164 165 163 155 145 137 132 126 121 119 118 117 117 121 121 121 118 112 110 107 104 101 98 100 104 106 107 107 107 105 103 105 107 108 110 110 109 109 111 111 109 106 104 101 100 99 99 100 101 103 104 106 107 109 110 111 112 111 113 113 111 110 109 107 103 99 94 88 84 82 81 81 82 84 84 84 83 81 77 76 74
181 178 173 172 168 167 169 163 152 142 137 131 127 123 119 120 120 123 126 126 124 116 113 112 110 107 105 104 104 105 105 106 108 111 113 110 106 105 106 108 109 112 114 114 112 108 106 103 102 102 103 104 105 107 108 109 111 112 113 113 114 114 114 112 108 107 104 101 95 91 87 84 82 81 81 82 84 86 85 84 83 79 77 76 74
183 182 177 177 174 167 172 171 160 148 142 137 133 131 126 125 126 128 132 133 132 127 122 117 115 114 111 109 108 107 106 106 107 111 113 112 111 111 112 112 112 114 115 112 108 106 106 105 106 106 106 107 109 110 111 112 113 114 113 113 114 114 112 108 106 106 101 97 91 86 82 80 80 80 82 85 86 86 85 83 80 77 77 77 73
185 185 179 181 181 170 172 181 170 157 151 145 138 137 132 129 133 133 136 140 140 138 132 124 120 116 112 110 109 108 106 104 104 106 110 114 117 117 119 121 119 118 114 109 106 107 108 109 109 109 109 109 110 111 112 113 113 113 113 113 112 110 108 105 105 105 99 94 89 82 78 76 78 81 84 85 86 85 83 79 78 79 79 76 72
189 188 184 183 186 178 173 184 181 166 161 154 145 143 138 136 139 138 139 142 144 144 139 133 127 122 116 113 111 108 105 101 99 100 105 112 116 116 117 119 120 119 115 112 112 112 112 112 112 111 110 109 110 111 112 113 112 111 111 111 111 108 107 107 107 104 98 92 84 77 75 76 78 81 84 85 84 81 79 78 80 81 80 76 73
192 191 189 186 189 188 179 184 188 177 170 165 156 151 144 143 145 142 140 138 141 143 140 139 138 135 131 125 121 116 111 106 103 100 100 105 109 110 111 112 115 117 117 118 119 117 116 115 114 114 114 113 112 112 111 111 109 107 107 108 108 108 109 111 108 103 96 88 79 74 74 77 80 81 82 82 81 79 79 82 83 82 80 77 73
195 192 193 192 192 194 188 186 189 186 179 174 168 162 154 148 149 145 138 135 136 141 142 142 144 145 143 140 136 129 123 120 113 106 102 104 106 109 111 113 117 120 121 124 124 123 122 119 118 121 122 120 118 116 113 112 109 106 105 105 105 108 112 112 109 102 92 82 76 73 74 77 80 82 81 79 79 81 83 84 83 81 79 76 72
198 194 194 194 195 197 196 189 189 191 186 181 177 173 167 156 152 146 138 134 133 143 144 138 143 147 144 147 149 142 137 132 124 117 115 115 114 115 115 116 122 125 127 129 129 127 126 123 123 125 126 123 121 119 116 112 109 106 106 105 108 112 115 114 109 101 89 81 76 74 76 79 81 82 81 79 81 85 86 85 83 81 80 75 69
200 197 196 194 195 199 199 192 189 192 190 187 183 182 180 167 158 150 142 137 137 149 147 134 143 148 144 152 156 151 148 140 133 133 132 129 125 123 122 123 126 127 130 132 130 128 127 127 126 123 123 123 121 119 113 110 107 106 108 111 114 118 119 116 108 97 87 81 77 78 81 84 83 84 85 85 85 86 86 85 84 82 79 72 65
199 198 197 195 195 198 200 196 193 192 191 191 187 186 189 178 166 156 150 142 140 152 154 145 153 156 150 153 157 158 153 143 139 140 139 136 131 126 126 130 131 132 134 132 126 126 127 126 121 118 125 124 118 116 112 109 108 110 115 117 119 121 119 114 104 94 87 83 81 83 87 88 86 84 86 90 89 87 87 86 86 83 76 70 66
195 197 196 193 194 195 197 198 198 196 193 195 193 189 191 186 175 164 159 151 149 159 165 161 160 164 163 157 164 170 152 141 142 142 140 136 130 125 127 130 131 132 130 124 121 124 124 123 120 122 130 123 112 112 111 110 111 114 118 119 119 119 116 109 102 96 94 91 84 83 88 88 87 86 88 91 91 90 90 89 87 81 75 71 72
193 196 196 193 192 193 194 196 199 199 197 198 197 192 192 189 184 175 168 165 164 165 167 168 162 169 176 161 164 168 148 143 147 145 143 137 129 126 128 128 129 129 126 126 128 129 129 128 127 126 123 115 110 113 112 110 112 114 117 118 119 121 116 108 101 95 95 92 83 83 90 92 93 94 93 94 94 93 94 91 86 81 78 76 77
195 197 197 195 193 193 194 194 198 200 199 201 198 194 193 190 190 187 178 176 175 169 167 168 162 169 181 163 158 162 160 163 159 154 149 141 135 132 133 133 133 132 131 134 133 132 136 133 128 124 118 117 119 118 113 113 116 118 119 121 121 121 113 104 99 94 87 84 84 90 96 96 98 99 99 99 98 98 97 92 87 85 82 79 79
197 198 199 197 195 194 194 195 198 200 200 200 196 193 195 193 193 193 186 181 180 175 170 166 162 168 178 168 164 174 178 179 172 167 160 151 148 144 142 142 139 136 135 135 132 132 135 131 127 125 123 126 124 116 113 116 121 124 126 125 122 116 107 102 102 100 89 83 90 99 101 102 103 104 104 104 103 102 98 92 90 88 83 79 80
199 200 201 201 199 196 195 196 198 198 199 200 195 190 196 197 195 195 192 184 182 180 173 168 167 171 178 174 173 183 185 184 181 178 171 164 160 156 153 150 146 140 136 131 127 126 125 126 126 123 124 127 124 119 117 119 126 129 129 127 122 115 111 112 110 106 100 96 101 108 108 109 109 108 108 108 106 102 95 93 93 89 82 81 83
200 199 201 203 202 198 196 196 198 198 197 199 196 190 196 200 198 197 193 185 182 183 178 174 172 173 183 182 179 187 188 186 188 186 180 176 171 166 161 157 154 147 139 132 129 124 120 120 119 119 122 124 126 124 122 125 131 133 132 126 119 114 114 113 110 110 110 108 111 115 115 115 116 114 112 111 108 101 95 95 95 88 84 85 88
201 200 200 202 203 201 198 196 197 198 196 199 197 192 197 202 201 198 193 186 183 183 182 180 179 180 185 186 185 189 190 187 189 189 186 183 178 174 169 164 162 154 146 140 137 135 126 118 117 116 121 128 132 132 129 133 136 139 139 127 117 115 115 115 112 114 116 116 120 124 123 123 123 119 116 114 107 100 98 99 95 90 89 92 94
204 204 202 202 203 203 199 196 197 198 195 199 200 197 200 203 202 199 192 189 186 184 185 184 183 182 181 186 187 187 188 186 187 189 189 188 183 179 174 170 166 160 152 148 147 147 139 130 126 123 128 137 141 139 137 140 145 148 145 131 119 115 115 114 114 116 117 119 127 133 131 130 127 122 119 115 108 102 103 103 98 94 94 96 97
207 208 206 204 205 203 200 196 196 197 196 199 203 202 203 204 203 199 193 191 190 186 185 184 183 179 178 188 190 186 186 184 184 187 188 189 186 181 178 175 171 165 160 159 159 158 154 147 140 133 135 142 147 147 145 148 152 151 144 130 119 115 112 111 114 119 122 124 132 138 135 133 130 125 121 116 108 106 109 108 103 100 99 99 100
208 208 208 206 205 204 200 195 194 196 197 200 205 206 206 207 205 199 194 194 193 190 186 185 185 182 183 192 193 187 185 180 182 187 186 187 185 183 182 178 175 171 168 169 170 170 170 164 156 146 139 145 156 157 153 155 156 153 146 132 121 118 118 118 118 121 126 130 135 138 136 135 132 126 120 114 109 111 114 114 110 106 103 104 105
207 207 208 208 208 205 200 196 194 194 196 200 206 210 210 209 206 201 198 198 197 195 190 187 188 187 188 193 192 188 186 182 184 188 185 183 182 182 182 180 177 175 175 177 178 179 180 177 175 167 151 151 162 167 165 163 160 156 149 135 125 122 122 122 122 123 129 134 137 141 141 139 135 128 121 115 113 117 120 119 115 112 111 112 112
209 208 209 209 209 207 202 198 195 195 196 199 206 212 212 210 206 203 202 202 201 199 196 191 190 191 190 192 191 188 189 185 183 188 185 181 180 180 180 179 178 178 180 184 186 186 186 187 188 186 178 168 166 170 171 168 164 160 153 140 131 128 126 125 125 127 133 137 139 142 144 143 137 129 123 120 122 125 124 121 119 117 117 119 118
211 210 210 210 209 209 204 199 197 197 197 198 206 212 214 210 204 201 205 205 205 204 201 196 194 192 192 194 193 191 190 184 184 189 186 181 180 180 179 178 178 180 184 189 191 191 192 194 195 193 190 181 173 172 173 171 170 168 161 149 140 136 133 130 129 130 135 140 142 143 144 141 136 130 125 127 133 134 128 123 123 122 123 126 125
Height
5899 5899 5900 5900 5900 5900 5899 5900 5900 5899 5899 5899 5900 5900 5901 5901 5901 5901 5902 5902 5902 5902 5902 5903 5903 5903 5902 5902 5901 5901 5903 5904 5903 5903 5903 5902 5902 5902 5903 5903 5903 5903 5903 5903 5904 5904 5906 5909 5911 5910 5909 5909 5909 5909 5909 5907 5907 5908 5909 5909 5908 5908 5908 5908 5908 5910 5911 5911 5911 5910 5911 5911 5912 5912 5912 5912 5913 5912 5912 5911 5911 5910 5910 5910 5910
5901 5901 5901 5901 5900 5900 5901 5901 5901 5901 5901 5901 5901 5902 5902 5902 5902 5902 5903 5903 5903 5903 5903 5903 5903 5903 5902 5902 5902 5903 5905 5905 5903 5903 5903 5904 5904 5904 5904 5903 5904 5904 5903 5904 5904 5905 5906 5908 5910 5909 5909 5909 5909 5909 5908 5907 5907 5909 5909 5909 5908 5908 5909 5908 5909 5910 5910 5911 5911 5911 5912 5913 5913 5913 5913 5913 5914 5913 5913 5912 5912 5911 5911 5911 5912
5902 5902 5902 5902 5902 5902 5902 5902 5902 5902 5902 5903 5903 5903 5903 5903 5904 5904 5904 5904 5904 5904 5904 5904 5904 5903 5902 5902 5904 5906 5905 5902 5902 5903 5904 5906 5905 5905 5904 5904 5904 5903 5904 5905 5905 5906 5906 5907 5909 5909 5909 5909 5910 5909 5909 5908 5908 5908 5909 5908 5907 5909 5910 5908 5908 5910 5911 5912 5912 5912 5913 5914 5914 5914 5914 5914 5914 5914 5914 5913 5913 5912 5913 5913 5913
5903 5904 5904 5904 5903 5903 5903 5904 5904 5904 5904 5904 5904 5904 5905 5905 5905 5905 5905 5905 5905 5905 5905 5905 5905 5903 5902 5904 5907 5907 5903 5900 5901 5903 5905 5906 5905 5905 5905 5904 5904 5903 5904 5905 5906 5907 5907 5908 5909 5909 5909 5909 5910 5910 5909 5909 5908 5908 5909 5909 5908 5910 5910 5908 5908 5910 5912 5913 5912 5913 5914 5914 5915 5915 5915 5915 5915 5915 5915 5914 5914 5914 5914 5914 5914
5905 5905 5905 5906 5905 5905 5905 5905 5905 5905 5905 5905 5905 5906 5906 5906 5906 5906 5906 5906 5906 5907 5907 5906 5904 5902 5903 5907 5908 5906 5902 5900 5902 5904 5905 5905 5905 5905 5905 5905 5904 5904 5904 5906 5907 5908 5908 5908 5909 5910 5909 5909 5910 5909 5910 5909 5908 5909 5910 5909 5908 5910 5910 5909 5909 5911 5913 5913 5913 5914 5914 5915 5916 5916 5916 5916 5916 5916 5916 5916 5916 5916 5916 5916 5916
5906 5906 5907 5907 5907 5907 5907 5907 5907 5907 5907 5907 5907 5907 5907 5907 5906 5906 5907 5907 5908 5908 5907 5906 5904 5902 5906 5909 5909 5907 5903 5902 5904 5905 5904 5904 5905 5905 5905 5905 5905 5905 5905 5907 5908 5908 5909 5909 5910 5910 5910 5910 5909 5909 5909 5909 5908 5909 5911 5909 5909 5910 5910 5910 5910 5912 5912 5913 5914 5915 5915 5916 5917 5917 5917 5917 5917 5917 5918 5918 5918 5917 5917 5917 5917
5907 5907 5908 5908 5908 5908 5908 5908 5908 5908 5908 5908 5908 5908 5908 5907 5907 5907 5908 5908 5909 5908 5907 5906 5903 5903 5908 5910 5909 5906 5904 5905 5905 5905 5905 5905 5905 5905 5905 5906 5906 5906 5907 5908 5908 5909 5909 5909 5910 5910 5911 5911 5911 5910 5909 5908 5908 5910 5911 5910 5910 5912 5912 5911 5912 5912 5912 5914 5916 5916 5917 5917 5918 5918 5918 5918 5919 5919 5920 5920 5919 5919 5919 5918 5918
5908 5909 5909 5909 5910 5909 5910 5909 5910 5909 5909 5909 5909 5908 5908 5908 5908 5908 5909 5909 5909 5908 5907 5906 5903 5904 5909 5912 5909 5906 5905 5906 5906 5906 5905 5905 5905 5905 5905 5906 5906 5907 5908 5908 5908 5909 5909 5909 5911 5911 5911 5912 5913 5912 5910 5908 5908 5909 5912 5912 5912 5913 5914 5914 5914 5914 5914 5915 5917 5918 5919 5919 5918 5919 5919 5920 5920 5921 5921 5921 5921 5921 5920 5920 5921
5909 5910 5910 5910 5911 5911 5911 5911 5911 5911 5910 5910 5909 5909 5909 5909 5909 5910 5910 5909 5909 5908 5908 5906 5904 5906 5911 5912 5909 5906 5906 5907 5907 5906 5906 5905 5904 5905 5906 5907 5907 5908 5908 5908 5908 5908 5908 5909 5911 5912 5910 5911 5913 5913 5911 5909 5908 5909 5912 5913 5914 5915 5915 5915 5916 5917 5917 5917 5918 5919 5920 5919 5919 5920 5921 5922 5922 5922 5922 5922 5922 5922 5922 5922 5923
5910 5911 5911 5911 5912 5912 5912 5912 5912 5911 5911 5910 5910 5910 5909 5909 5910 5911 5910 5910 5909 5909 5908 5907 5906 5908 5912 5913 5909 5906 5907 5908 5908 5907 5906 5906 5905 5906 5908 5908 5908 5908 5909 5909 5909 5909 5909 5909 5910 5911 5910 5910 5912 5912 5911 5910 5909 5910 5913 5914 5915 5914 5914 5915 5916 5918 5919 5918 5919 5920 5920 5920 5921 5922 5923 5923 5923 5923 5923 5924 5924 5924 5924 5924 5924
5911 5912 5912 5912 5913 5913 5913 5913 5912 5912 5912 5911 5911 5910 5910 5911 5911 5911 5911 5910 5910 5910 5909 5909 5908 5910 5913 5913 5910 5908 5908 5909 5909 5908 5907 5907 5906 5908 5910 5909 5908 5909 5909 5910 5910 5909 5909 5910 5910 5911 5910 5910 5911 5911 5911 5911 5911 5912 5913 5915 5916 5915 5915 5915 5915 5917 5920 5920 5920 5921 5921 5922 5923 5924 5925 5925 5925 5925 5925 5926 5926 5926 5926 5926 5926
5912 5912 5913 5913 5914 5914 5914 5913 5913 5913 5913 5913 5912 5911 5911 5911 5912 5912 5912 5911 5911 5911 5911 5910 5910 5910 5913 5914 5912 5910 5909 5910 5910 5910 5909 5909 5908 5909 5910 5911 5910 5909 5910 5911 5911 5910 5910 5911 5911 5911 5911 5911 5911 5911 5911 5912 5913 5913 5914 5916 5918 5918 5918 5917 5917 5919 5921 5922 5922 5922 5923 5924 5925 5926 5926 5926 5927 5927 5927 5928 5928 5927 5928 5928 5928
5913 5913 5914 5914 5915 5915 5915 5915 5915 5915 5914 5914 5913 5913 5913 5912 5912 5912 5912 5913 5912 5912 5912 5912 5912 5911 5913 5915 5914 5912 5911 5911 5912 5912 5911 5910 5909 5909 5910 5911 5911 5911 5912 5912 5912 5911 5912 5913 5913 5913 5912 5912 5912 5912 5912 5912 5914 5914 5915 5917 5919 5920 5921 5921 5922 5923 5923 5923 5923 5924 5924 5925 5926 5927 5928 5928 5929 5929 5929 5929 5929 5929 5929 5929 5929
5914 5914 5915 5915 5916 5916 5917 5916 5917 5916 5916 5915 5914 5914 5914 5914 5913 5913 5914 5914 5914 5914 5914 5914 5913 5912 5914 5915 5915 5914 5913 5912 5913 5913 5913 5912 5911 5911 5911 5912 5912 5912 5912 5913 5913 5913 5913 5914 5915 5915 5915 5914 5914 5914 5914 5914 5915 5916 5917 5918 5919 5921 5922 5923 5924 5924 5924 5924 5924 5925 5926 5927 5928 5929 5929 5930 5930 5931 5931 5931 5931 5931 5931 5931 5931
5915 5915 5916 5916 5917 5918 5918 5918 5918 5918 5917 5916 5916 5916 5915 5915 5914 5914 5915 5915 5915 5916 5916 5915 5914 5913 5914 5916 5916 5916 5915 5914 5914 5914 5914 5913 5913 5913 5913 5913 5913 5913 5913 5914 5914 5914 5915 5916 5916 5916 5916 5916 5916 5916 5916 5917 5918 5919 5920 5920 5921 5922 5923 5924 5925 5925 5925 5925 5926 5927 5928 5929 5930 5930 5931 5932 5932 5932 5933 5932 5933 5933 5933 5933 5933
5916 5916 5917 5917 5918 5918 5919 5919 5919 5919 5918 5917 5917 5917 5916 5916 5916 5915 5916 5916 5916 5917 5917 5917 5916 5915 5915 5916 5917 5917 5916 5916 5915 5915 5915 5914 5914 5914 5915 5915 5915 5915 5915 5915 5915 5915 5916 5917 5917 5918 5918 5918 5918 5919 5919 5920 5921 5921 5922 5922 5923 5924 5925 5925 5926 5926 5926 5927 5927 5929 5930 5931 5931 5932 5933 5933 5934 5934 5934 5934 5934 5935 5935 5935 5935
5917 5917 5918 5919 5919 5919 5920 5920 5920 5920 5920 5919 5918 5918 5917 5917 5917 5917 5917 5917 5917 5918 5919 5919 5917 5916 5916 5916 5917 5918 5918 5917 5917 5917 5916 5916 5916 5916 5916 5917 5917 5917 5917 5917 5917 5918 5918 5918 5919 5920 5920 5920 5921 5921 5922 5922 5923 5924 5924 5925 5925 5926 5926 5926 5927 5927 5928 5929 5929 5930 5931 5932 5933 5934 5934 5935 5935 5935 5935 5936 5936 5937 5937 5936 5936
5918 5918 5919 5920 5920 5921 5921 5921 5921 5921 5921 5920 5920 5919 5919 5918 5918 5918 5918 5918 5918 5919 5920 5920 5919 5918 5917 5917 5918 5918 5919 5919 5919 5919 5919 5918 5918 5918 5918 5918 5919 5919 5919 5919 5919 5920 5920 5920 5921 5922 5922 5923 5924 5924 5924 5925 5925 5926 5926 5927 5927 5927 5928 5928 5929 5929 5930 5930 5931 5932 5933 5934 5935 5935 5936 5936 5936 5937 5937 5938 5938 5938 5938 5938 5938
5918 5919 5920 5920 5921 5922 5922 5922 5922 5922 5922 5921 5921 5921 5920 5919 5919 5919 5920 5920 5920 5921 5922 5922 5922 5921 5920 5919 5919 5919 5920 5920 5920 5920 5920 5920 5920 5919 5920 5920 5921 5921 5921 5922 5922 5922 5922 5923 5923 5924 5925 5925 5925 5926 5926 5927 5927 5928 5928 5929 5929 5929 5929 5930 5931 5931 5932 5932 5933 5934 5935 5935 5936 5937 5937 5938 5938 5939 5939 5940 5940 5940 5939 5939 5939
5919 5920 5920 5921 5922 5923 5923 5923 5923 5923 5923 5923 5922 5922 5921 5921 5921 5921 5921 5921 5922 5923 5923 5924 5924 5923 5922 5921 5921 5921 5921 5921 5921 5921 5922 5922 5921 5921 5922 5922 5923 5923 5924 5924 5924 5924 5924 5924 5925 5925 5926 5927 5927 5927 5928 5929 5929 5930 5930 5930 5931 5931 5931 5932 5932 5933 5933 5934 5935 5935 5936 5937 5938 5938 5939 5939 5940 5940 5941 5941 5941 5941 5941 5941 5941
5919 5920 5921 5922 5923 5923 5924 5924 5925 5925 5924 5924 5924 5923 5923 5922 5922 5922 5922 5923 5923 5924 5925 5925 5925 5924 5923 5923 5923 5923 5923 5923 5923 5922 5923 5923 5923 5924 5924 5924 5925 5925 5926 5926 5926 5926 5926 5926 5927 5927 5928 5928 5929 5929 5930 5931 5931 5931 5932 5932 5932 5932 5933 5933 5934 5934 5935 5936 5937 5937 5938 5939 5939 5940 5941 5941 5942 5942 5943 5943 5943 5942 5942 5942 5942
5920 5921 5922 5923 5923 5924 5924 5925 5926 5926 5925 5925 5925 5925 5925 5924 5924 5924 5924 5924 5925 5926 5926 5926 5927 5927 5925 5924 5924 5924 5924 5924 5924 5924 5924 5924 5925 5925 5926 5926 5927 5927 5927 5927 5927 5927 5928 5928 5929 5929 5930 5930 5931 5931 5932 5932 5933 5933 5933 5933 5933 5934 5934 5935 5936 5936 5937 5938 5938 5939 5939 5940 5941 5942 5942 5943 5944 5944 5944 5944 5944 5944 5944 5944 5943
5921 5922 5923 5923 5924 5924 5925 5926 5927 5926 5926 5926 5927 5927 5926 5925 5925 5925 5925 5925 5926 5928 5928 5927 5928 5930 5929 5926 5925 5925 5925 5926 5926 5927 5926 5926 5927 5927 5927 5928 5928 5928 5928 5928 5928 5929 5929 5930 5930 5931 5931 5932 5932 5932 5933 5933 5934 5934 5934 5934 5935 5936 5936 5937 5938 5938 5939 5939 5940 5940 5941 5942 5943 5943 5944 5945 5946 5946 5946 5945 5945 5945 5945 5945 5944
5922 5922 5923 5924 5925 5925 5926 5927 5927 5927 5927 5927 5928 5928 5928 5927 5927 5927 5927 5926 5927 5928 5929 5929 5930 5932 5932 5930 5928 5926 5926 5927 5928 5929 5929 5929 5929 5929 5929 5929 5930 5929 5930 5930 5930 5931 5931 5931 5931 5932 5932 5933 5933 5933 5934 5934 5935 5935 5935 5936 5936 5937 5938 5939 5939 5940 5940 5941 5941 5942 5943 5944 5944 5945 5946 5947 5947 5947 5947 5946 5947 5947 5946 5946 5946
5922 5923 5924 5925 5925 5926 5927 5928 5928 5928 5928 5928 5929 5929 5929 5929 5929 5929 5929 5928 5928 5929 5929 5930 5931 5933 5934 5933 5931 5928 5927 5927 5928 5930 5931 5931 5931 5931 5931 5931 5931 5932 5932 5932 5933 5933 5933 5933 5933 5933 5933 5934 5934 5935 5935 5936 5936 5937 5937 5937 5938 5939 5940 5940 5941 5942 5942 5942 5943 5944 5945 5946 5947 5947 5948 5949 5949 5948 5948 5948 5948 5948 5947 5947 5948
5923 5923 5924 5925 5926 5927 5927 5928 5929 5929 5929 5929 5929 5929 5929 5930 5931 5931 5931 5930 5930 5930 5930 5930 5932 5934 5934 5935 5933 5931 5930 5929 5928 5930 5931 5932 5933 5933 5933 5933 5933 5933 5934 5934 5934 5934 5934 5934 5934 5935 5935 5935 5936 5936 5937 5937 5937 5938 5938 5939 5940 5941 5941 5942 5943 5943 5944 5944 5945 5946 5947 5948 5949 5949 5950 5950 5950 5950 5949 5949 5949 5949 5949 5949 5949
5924 5924 5924 5925 5926 5927 5928 5929 5930 5930 5930 5930 5930 5930 5930 5932 5933 5933 5933 5933 5932 5932 5932 5931 5932 5934 5935 5937 5937 5935 5934 5932 5931 5931 5932 5933 5934 5935 5935 5934 5934 5935 5935 5936 5936 5935 5936 5936 5936 5936 5937 5937 5938 5938 5938 5939 5939 5940 5940 5941 5942 5942 5943 5944 5945 5945 5946 5947 5948 5948 5949 5950 5950 5951 5951 5951 5951 5951 5951 5951 5951 5951 5951 5951 5951
5924 5924 5925 5926 5927 5928 5929 5929 5930 5931 5931 5931 5932 5932 5932 5933 5934 5934 5935 5935 5934 5934 5934 5933 5933 5935 5936 5938 5939 5938 5938 5936 5935 5934 5934 5935 5935 5936 5936 5936 5936 5937 5937 5938 5938 5938 5938 5938 5938 5939 5939 5939 5940 5940 5940 5941 5941 5942 5943 5943 5944 5945 5945 5946 5947 5947 5948 5949 5950 5950 5951 5952 5952 5952 5953 5953 5953 5952 5952 5952 5952 5952 5953 5953 5953
5925 5925 5926 5926 5927 5928 5929 5930 5931 5931 5932 5933 5933 5933 5933 5934 5934 5935 5935 5935 5936 5935 5935 5935 5935 5936 5937 5938 5940 5940 5940 5939 5938 5938 5937 5937 5937 5937 5937 5938 5938 5939 5940 5940 5940 5940 5940 5940 5940 5941 5941 5942 5942 5942 5943 5943 5943 5944 5945 5946 5946 5947 5948 5948 5949 5950 5950 5951 5952 5952 5953 5953 5954 5954 5954 5954 5954 5954 5953 5953 5954 5954 5955 5955 5955
5925 5926 5926 5927 5928 5929 5930 5930 5931 5932 5933 5933 5934 5934 5934 5934 5935 5935 5936 5936 5936 5936 5937 5937 5937 5938 5938 5939 5940 5941 5941 5941 5941 5941 5941 5940 5939 5939 5939 5939 5940 5941 5942 5942 5943 5943 5942 5942 5943 5943 5944 5944 5944 5945 5945 5945 5946 5946 5947 5948 5948 5949 5950 5951 5951 5952 5952 5953 5954 5954 5955 5955 5955 5955 5955 5955 5955 5955 5955 5955 5956 5956 5956 5956 5956
5925 5926 5927 5928 5928 5929 5930 5931 5931 5932 5933 5934 5935 5935 5936 5936 5936 5936 5937 5937 5938 5938 5938 5938 5939 5939 5939 5940 5941 5941 5942 5943 5943 5944 5944 5944 5943 5941 5940 5941 5942 5943 5943 5943 5944 5944 5945 5945 5946 5946 5947 5947 5947 5947 5948 5948 5948 5949 5950 5950 5951 5952 5952 5953 5953 5954 5954 5955 5955 5956 5956 5956 5956 5956 5956 5956 5956 5956 5957 5957 5958 5958 5958 5958 5957
5925 5926 5927 5928 5929 5929 5930 5931 5932 5933 5934 5934 5935 5936 5936 5937 5937 5938 5938 5939 5939 5940 5940 5940 5940 5940 5940 5940 5941 5941 5942 5943 5944 5945 5946 5946 5946 5945 5944 5944 5944 5944 5945 5945 5946 5947 5947 5948 5948 5948 5949 5949 5950 5950 5950 5951 5951 5951 5952 5953 5953 5954 5954 5955 5955 5956 5956 5957 5957 5957 5958 5957 5957 5957 5957 5957 5958 5958 5959 5959 5959 5959 5959 5959 5959
5926 5927 5927 5928 5929 5930 5930 5931 5932 5933 5934 5935 5936 5936 5937 5937 5938 5938 5939 5940 5941 5941 5942 5942 5942 5942 5942 5941 5941 5942 5942 5942 5943 5944 5945 5946 5946 5947 5947 5946 5946 5946 5947 5947 5948 5949 5949 5950 5950 5950 5951 5951 5952 5952 5953 5953 5953 5954 5954 5955 5956 5956 5956 5957 5957 5957 5957 5958 5959 5959 5959 5959 5959 5959 5959 5959 5959 5960 5960 5961 5961 5961 5960 5960 5960
5925 5927 5928 5928 5929 5930 5931 5932 5933 5933 5934 5935 5936 5936 5937 5938 5938 5939 5940 5941 5942 5942 5943 5944 5944 5944 5944 5944 5943 5943 5943 5943 5944 5945 5945 5946 5945 5945 5947 5947 5947 5948 5948 5949 5950 5951 5952 5952 5952 5952 5953 5953 5954 5954 5955 5955 5956 5956 5957 5957 5958 5958 5958 5959 5959 5959 5959 5960 5960 5960 5960 5960 5960 5960 5960 5961 5961 5962 5962 5962 5962 5962 5962 5961 5961
5925 5927 5928 5929 5930 5931 5931 5932 5933 5934 5935 5936 5936 5937 5937 5938 5939 5939 5940 5941 5942 5943 5944 5944 5945 5946 5946 5946 5946 5946 5946 5945 5945 5946 5947 5947 5946 5946 5948 5949 5949 5950 5950 5952 5953 5953 5953 5954 5954 5954 5954 5954 5955 5956 5957 5957 5957 5958 5958 5959 5959 5960 5960 5960 5961 5961 5961 5962 5962 5961 5961 5961 5962 5962 5962 5963 5963 5963 5963 5963 5963 5963 5963 5963 5962
5926 5927 5928 5929 5930 5931 5932 5933 5934 5934 5935 5936 5937 5937 5938 5938 5939 5940 5941 5942 5943 5943 5944 5944 5945 5946 5947 5948 5948 5948 5948 5948 5948 5948 5949 5950 5950 5949 5950 5951 5952 5952 5952 5953 5954 5955 5956 5956 5957 5956 5956 5956 5957 5957 5958 5958 5959 5959 5959 5960 5960 5961 5961 5962 5962 5963 5963 5963 5963 5963 5963 5963 5963 5963 5964 5964 5964 5964 5965 5965 5964 5964 5964 5964 5964
5926 5927 5928 5929 5931 5931 5933 5933 5934 5935 5936 5936 5937 5938 5938 5939 5940 5941 5942 5942 5943 5944 5944 5945 5945 5945 5947 5947 5948 5949 5949 5950 5951 5951 5951 5952 5952 5952 5952 5953 5954 5954 5954 5955 5955 5956 5957 5958 5958 5958 5958 5959 5959 5959 5959 5960 5960 5960 5961 5961 5961 5962 5963 5963 5964 5964 5964 5964 5964 5964 5964 5964 5964 5965 5965 5965 5965 5966 5966 5966 5965 5965 5965 5965 5965
5925 5927 5928 5929 5931 5932 5933 5934 5935 5935 5936 5937 5937 5938 5939 5940 5940 5941 5942 5943 5944 5944 5944 5945 5945 5945 5947 5947 5947 5949 5950 5951 5952 5951 5953 5953 5953 5953 5953 5954 5956 5956 5956 5956 5956 5957 5958 5958 5959 5960 5960 5960 5961 5961 5961 5961 5961 5962 5962 5962 5963 5963 5964 5965 5965 5965 5965 5965 5965 5965 5965 5965 5966 5966 5966 5966 5967 5967 5967 5967 5967 5967 5967 5966 5966
5925 5926 5928 5929 5930 5932 5933 5934 5935 5935 5936 5937 5938 5939 5940 5940 5941 5942 5943 5944 5945 5944 5944 5946 5946 5945 5946 5947 5948 5950 5950 5950 5951 5951 5953 5953 5953 5954 5954 5955 5956 5956 5957 5957 5957 5958 5959 5959 5960 5961 5961 5962 5961 5962 5962 5962 5963 5963 5963 5964 5964 5965 5966 5966 5966 5967 5966 5966 5966 5966 5967 5967 5967 5967 5968 5968 5968 5968 5968 5968 5968 5968 5968 5968 5967
5925 5926 5927 5929 5930 5931 5933 5934 5935 5935 5936 5937 5938 5939 5940 5941 5942 5942 5943 5944 5945 5945 5946 5946 5947 5946 5946 5947 5949 5949 5949 5950 5951 5952 5953 5953 5953 5954 5955 5956 5956 5957 5958 5958 5958 5959 5960 5961 5961 5962 5962 5963 5963 5963 5963 5963 5964 5964 5964 5965 5966 5966 5967 5967 5968 5967 5967 5967 5967 5967 5968 5968 5968 5969 5969 5969 5969 5970 5970 5969 5969 5969 5969 5969 5969
5924 5925 5927 5928 5929 5931 5932 5933 5934 5935 5936 5937 5939 5940 5941 5942 5942 5943 5943 5944 5945 5946 5946 5947 5948 5948 5947 5948 5949 5950 5950 5950 5951 5952 5953 5953 5953 5954 5956 5957 5957 5958 5959 5959 5960 5960 5961 5961 5962 5962 5963 5963 5964 5964 5964 5964 5965 5965 5966 5966 5967 5968 5968 5968 5968 5968 5968 5969 5969 5968 5969 5969 5969 5970 5970 5970 5971 5971 5971 5971 5971 5971 5971 5970 5970
5924 5925 5926 5928 5929 5930 5932 5933 5934 5935 5937 5938 5939 5940 5941 5942 5942 5943 5944 5944 5945 5946 5947 5947 5949 5950 5949 5949 5950 5951 5951 5952 5952 5953 5953 5954 5954 5955 5957 5958 5958 5959 5960 5960 5961 5961 5962 5962 5962 5963 5964 5964 5964 5965 5965 5965 5966 5966 5967 5967 5968 5969 5969 5969 5969 5969 5969 5970 5970 5970 5970 5970 5970 5971 5971 5972 5972 5972 5972 5972 5972 5972 5972 5972 5972
5923 5925 5926 5927 5929 5930 5931 5933 5934 5935 5937 5938 5939 5940 5941 5942 5943 5943 5944 5945 5946 5946 5947 5948 5949 5950 5950 5951 5952 5952 5952 5953 5954 5954 5954 5955 5956 5956 5958 5958 5959 5960 5960 5961 5961 5962 5962 5963 5963 5963 5964 5965 5965 5965 5966 5966 5967 5967 5968 5969 5969 5969 5970 5970 5970 5970 5970 5971 5971 5971 5971 5972 5972 5972 5973 5973 5973 5973 5973 5973 5973 5973 5973 5973 5973
5923 5925 5926 5927 5928 5929 5931 5932 5934 5935 5937 5938 5939 5940 5941 5942 5943 5944 5944 5945 5946 5947 5948 5948 5950 5951 5952 5952 5953 5953 5954 5954 5954 5955 5956 5956 5957 5957 5958 5959 5960 5960 5961 5961 5962 5963 5963 5963 5964 5964 5965 5965 5966 5966 5967 5967 5968 5968 5969 5970 5970 5970 5971 5971 5971 5971 5971 5972 5972 5972 5973 5973 5973 5974 5974 5974 5974 5974 5975 5975 5975 5975 5975 5975 5975
5923 5924 5925 5926 5927 5929 5930 5932 5933 5935 5936 5938 5939 5940 5941 5942 5943 5944 5945 5945 5946 5947 5948 5949 5950 5951 5952 5953 5953 5954 5954 5955 5955 5956 5956 5957 5957 5958 5959 5960 5960 5961 5961 5962 5963 5964 5964 5964 5965 5965 5965 5966 5967 5967 5968 5969 5969 5970 5970 5971 5971 5971 5972 5972 5972 5972 5972 5972 5973 5974 5974 5974 5975 5975 5975 5976 5976 5976 5976 5976 5976 5976 5976 5976 5976
5923 5924 5925 5926 5927 5929 5930 5932 5933 5935 5936 5938 5939 5940 5940 5942 5943 5944 5945 5946 5947 5947 5948 5949 5950 5952 5953 5954 5954 5955 5955 5956 5956 5956 5957 5957 5958 5959 5959 5960 5961 5962 5962 5963 5964 5965 5965 5965 5966 5966 5966 5967 5968 5968 5969 5969 5970 5971 5971 5972 5972 5972 5973 5973 5973 5973 5973 5974 5974 5975 5975 5976 5976 5976 5976 5977 5977 5977 5978 5978 5978 5977 5977 5977 5977
5922 5923 5925 5926 5927 5928 5930 5931 5933 5934 5936 5937 5938 5939 5940 5941 5943 5944 5945 5946 5947 5947 5948 5949 5950 5952 5953 5954 5954 5955 5956 5956 5957 5957 5957 5958 5958 5959 5960 5961 5961 5962 5963 5964 5965 5966 5966 5967 5967 5967 5968 5968 5968 5969 5970 5970 5971 5972 5972 5973 5973 5973 5974 5974 5974 5974 5974 5975 5975 5976 5976 5976 5977 5977 5978 5978 5978 5979 5979 5979 5979 5979 5979 5979 5979
5922 5923 5924 5926 5927 5928 5929 5931 5932 5934 5936 5937 5938 5939 5940 5941 5943 5944 5945 5946 5946 5947 5948 5949 5950 5952 5953 5954 5955 5956 5957 5957 5958 5958 5958 5958 5959 5960 5960 5961 5962 5963 5964 5965 5965 5966 5967 5968 5968 5968 5969 5969 5969 5970 5971 5971 5972 5973 5973 5973 5973 5974 5974 5974 5975 5975 5975 5976 5976 5977 5977 5978 5978 5978 5979 5979 5980 5980 5980 5980 5980 5980 5980 5980 5980
5921 5922 5923 5925 5926 5928 5929 5930 5932 5933 5935 5936 5938 5939 5940 5941 5943 5944 5945 5946 5946 5947 5948 5949 5950 5952 5953 5954 5955 5956 5957 5958 5958 5959 5959 5959 5960 5960 5961 5962 5963 5964 5964 5965 5966 5967 5968 5968 5969 5969 5969 5970 5970 5971 5971 5972 5973 5973 5974 5974 5974 5975 5975 5975 5975 5976 5976 5977 5977 5978 5978 5979 5979 5979 5980 5980 5981 5981 5981 5981 5981 5981 5981 5981 5981
5920 5921 5923 5924 5926 5927 5928 5930 5931 5932 5934 5936 5937 5938 5940 5941 5943 5944 5945 5946 5946 5947 5948 5949 5950 5952 5953 5954 5956 5957 5957 5958 5959 5960 5960 5960 5960 5961 5962 5963 5964 5964 5965 5966 5967 5968 5968 5969 5969 5970 5970 5971 5971 5972 5972 5973 5973 5974 5974 5975 5975 5975 5976 5976 5976 5976 5977 5977 5978 5978 5979 5979 5980 5980 5981 5981 5982 5982 5982 5982 5982 5982 5982 5982 5982
5920 5921 5922 5923 5925 5926 5927 5929 5930 5932 5933 5935 5936 5938 5939 5941 5943 5944 5945 5945 5946 5947 5948 5949 5951 5952 5953 5955 5956 5957 5958 5958 5959 5960 5960 5960 5961 5962 5962 5963 5964 5965 5966 5967 5968 5968 5969 5969 5970 5971 5971 5971 5972 5972 5973 5973 5974 5974 5975 5975 5976 5976 5977 5977 5977 5977 5978 5978 5979 5979 5980 5980 5981 5981 5981 5982 5982 5982 5983 5983 5983 5983 5983 5983 5983